2018-083D (43665 NORAD) Tracking and Keplerian Element Data

This shows tracking and keplerian element data for the satellite.

Feedback or suggestion? Click here.




ElementValue
Catalog43665
Name2018-083D
Epoch Orbit255
Epoch Day318.8530469
Epoch Year2018
RAAN339.6006
Inclination97.5206
Eccentricity0.0012772
Argument of Perigee209.5559
Mean Anonmoly275.0839
Mean Motion15.16804401
Decay Rate7.62E-06
L11 43665U 18083D 18318.85304690 .00000762 00000-0 42195-4 0 9990
L22 43665 97.5206 339.6006 0012772 209.5559 275.0839 15.16804401 2552

Live tracking and technical data element details for 2018-083D (NORAD 43665). 2018-083D can be tracked NOW for your location showing map with azimuth and elevation plus other details from your city location.

Track the satellite on the map from your city or location and see movement details for azimuth, elevation, latitude, longitude, range, height, and movement on the map or in text.







IsCatalogInMostPopularTable: catalog: 43665, numindb: 3
Update: records affected: 1



GetName: 43665 2018-083D

Hit Count: updated at: Fri, 16 Nov 2018 02:55:38 GMT